Oakland, MD

10:48 AM EDT on June 23, 2017 (GMT -0400)
Oakland

Weather History for K2G4 - January, 2013

Change the Weather History Date:

Sunday, January 13, 2013

  Actual Average (KMGW) Record (KMGW)
Temperature  
Mean Temperature 56 °F -  
Max Temperature 60 °F 39 °F 72 °F (2005)
Min Temperature 51 °F 19 °F -12 °F (1977)
Degree Days  
Heating Degree Days 10    
Growing Degree Days 6 (Base 50)    
Moisture  
Dew Point 50 °F    
Average Humidity 83    
Maximum Humidity 100    
Minimum Humidity 63    
Precipitation  
Precipitation 0.00 in - - ()
Sea Level Pressure  
Sea Level Pressure 30.00 in    
Wind  
Wind Speed 10 mph (SSW)    
Max Wind Speed 15 mph    
Max Gust Speed 25 mph    
Visibility 10 miles    
Events      
Averages and records for this station are not official NWS values.
T = Trace of Precipitation, MM = Missing Value Source: NWS Daily Summary

Daily Weather History Graph

Daily Weather History Graph

Search for Another Location

Airport or City:

Trip Planner

Search our weather history database for the weather conditions in past years. The results will help you decide how hot, cold, wet, or windy it might be!

Date:

Astronomy

Jan. 13, 2013 Rise Set
Actual Time 7:36 AM EST 5:15 PM EST
Civil Twilight 7:07 AM EST 5:45 PM EST
Nautical Twilight 6:33 AM EST 6:18 PM EST
Astronomical Twilight 6:01 AM EST 6:51 PM EST
Moon 8:34 AM EST (1/13) 7:51 PM EST (1/13)
Length of Visible Light 10h 38m
Length of Day
9h 39m
Waxing Crescent, 5% of the Moon is Illuminated
Jan 13
Waxing Crescent
Jan 18
First Quarter
Jan 26
Full
Feb 3
Last Quarter
Feb 10
New

Hourly Weather History & Observations

Time (EST) Temp. Dew Point Humidity Pressure Visibility Wind Dir Wind Speed Gust Speed Precip Events Conditions
12:05 AM 53.6 °F 50.0 °F 88% 30.06 in 10.0 mi SSE 9.2 mph - N/A   Overcast
12:25 AM 53.6 °F 50.0 °F 88% 30.04 in 10.0 mi SSE 10.4 mph - N/A   Mostly Cloudy
12:45 AM 53.6 °F 50.0 °F 88% 30.04 in 10.0 mi SSE 11.5 mph - N/A   Scattered Clouds
1:10 AM 53.6 °F 51.8 °F 94% 30.04 in 10.0 mi SSE 11.5 mph - N/A   Clear
1:30 AM 51.8 °F 51.8 °F 100% 30.02 in 10.0 mi SSE 11.5 mph - N/A   Clear
1:50 AM 53.6 °F 51.8 °F 94% 30.02 in 10.0 mi SSE 13.8 mph - N/A   Clear
2:10 AM 53.6 °F 51.8 °F 94% 30.02 in 10.0 mi SSE 13.8 mph - N/A   Clear
2:35 AM 53.6 °F 53.6 °F 100% 30.02 in 10.0 mi SSE 11.5 mph - N/A   Clear
2:55 AM 51.8 °F 51.8 °F 100% 30.00 in 10.0 mi SSE 12.7 mph - N/A   Clear
3:15 AM 51.8 °F 51.8 °F 100% 30.00 in 10.0 mi SSE 11.5 mph - N/A   Clear
3:35 AM 51.8 °F 51.8 °F 100% 29.99 in 10.0 mi SSE 10.4 mph - N/A   Clear
4:00 AM 51.8 °F 51.8 °F 100% 29.98 in 10.0 mi SE 10.4 mph - N/A   Clear
4:20 AM 51.8 °F 51.8 °F 100% 29.97 in 10.0 mi SSE 10.4 mph - N/A   Clear
4:40 AM 51.8 °F 51.8 °F 100% 29.97 in 10.0 mi SSE 10.4 mph - N/A   Clear
5:00 AM 51.8 °F 51.8 °F 100% 29.96 in 10.0 mi SSE 9.2 mph - N/A   Clear
5:25 AM 51.8 °F 51.8 °F 100% 29.96 in 10.0 mi South 9.2 mph - N/A   Clear
5:45 AM 51.8 °F 51.8 °F 100% 29.96 in 10.0 mi SSE 9.2 mph - N/A   Clear
6:05 AM 51.8 °F 51.8 °F 100% 29.96 in 10.0 mi South 8.1 mph - N/A   Clear
6:50 AM 51.8 °F 51.8 °F 100% 29.98 in 10.0 mi SSW 11.5 mph - N/A   Clear
7:10 AM 53.6 °F 48.2 °F 82% 29.99 in 10.0 mi SSW 12.7 mph - N/A   Clear
7:30 AM 55.4 °F 46.4 °F 72% 30.00 in 10.0 mi SSW 11.5 mph - N/A   Clear
8:15 AM 55.4 °F 46.4 °F 72% 30.03 in 10.0 mi SW 12.7 mph 18.4 mph N/A   Clear
8:35 AM 55.4 °F 46.4 °F 72% 30.04 in 10.0 mi SW 11.5 mph - N/A   Clear
8:55 AM 55.4 °F 46.4 °F 72% 30.04 in 10.0 mi SW 10.4 mph - N/A   Scattered Clouds
9:15 AM 57.2 °F 46.4 °F 67% 30.05 in 10.0 mi SW 9.2 mph 17.3 mph N/A   Scattered Clouds
9:40 AM 59.0 °F 48.2 °F 67% 30.06 in 10.0 mi SW 12.7 mph 19.6 mph N/A   Scattered Clouds
10:00 AM 59.0 °F 46.4 °F 63% 30.06 in 10.0 mi SW 10.4 mph 19.6 mph N/A   Mostly Cloudy
10:20 AM 59.0 °F 48.2 °F 67% 30.06 in 10.0 mi SW 10.4 mph 18.4 mph N/A   Mostly Cloudy
10:40 AM 59.0 °F 48.2 °F 67% 30.06 in 10.0 mi SW 8.1 mph 20.7 mph N/A   Mostly Cloudy
11:05 AM 60.8 °F 50.0 °F 68% 30.05 in 10.0 mi WSW 12.7 mph 25.3 mph N/A   Mostly Cloudy
11:25 AM 60.8 °F 50.0 °F 68% 30.04 in 10.0 mi WSW 10.4 mph 24.2 mph N/A   Overcast
11:45 AM 60.8 °F 50.0 °F 68% 30.03 in 10.0 mi WSW 11.5 mph 19.6 mph N/A   Overcast
12:05 PM 59.0 °F 50.0 °F 72% 30.02 in 10.0 mi WSW 10.4 mph 18.4 mph N/A   Overcast
12:30 PM 59.0 °F 50.0 °F 72% 30.01 in 10.0 mi WSW 12.7 mph 19.6 mph N/A   Overcast
12:50 PM 59.0 °F 50.0 °F 72% 30.00 in 10.0 mi WSW 11.5 mph 17.3 mph N/A   Overcast
1:30 PM 59.0 °F 50.0 °F 72% 29.99 in 10.0 mi WSW 15.0 mph - N/A   Overcast
1:55 PM 59.0 °F 50.0 °F 72% 29.99 in 10.0 mi SW 9.2 mph 18.4 mph N/A   Overcast
2:55 PM 59.0 °F 50.0 °F 72% 29.98 in 10.0 mi SSW 11.5 mph 21.9 mph N/A   Scattered Clouds
3:20 PM 59.0 °F 50.0 °F 72% 29.98 in 10.0 mi SSW 13.8 mph 23.0 mph N/A   Clear
3:40 PM 59.0 °F 50.0 °F 72% 29.98 in 10.0 mi SSW 10.4 mph 19.6 mph N/A   Clear
4:00 PM 59.0 °F 50.0 °F 72% 29.99 in 10.0 mi SSW 9.2 mph - N/A   Clear
4:20 PM 59.0 °F 50.0 °F 72% 30.00 in 10.0 mi SSW 10.4 mph - N/A   Clear
5:05 PM 57.2 °F 50.0 °F 77% 29.99 in 10.0 mi South 9.2 mph - N/A   Clear
5:25 PM 57.2 °F 50.0 °F 77% 29.99 in 10.0 mi South 10.4 mph - N/A   Clear
5:45 PM 57.2 °F 50.0 °F 77% 29.98 in 10.0 mi South 9.2 mph - N/A   Clear
6:10 PM 55.4 °F 50.0 °F 82% 29.99 in 10.0 mi SSW 10.4 mph - N/A   Scattered Clouds
6:30 PM 57.2 °F 50.0 °F 77% 29.98 in 10.0 mi South 10.4 mph - N/A   Overcast
6:50 PM 57.2 °F 50.0 °F 77% 29.99 in 10.0 mi South 9.2 mph - N/A   Overcast
7:10 PM 57.2 °F 50.0 °F 77% 29.99 in 10.0 mi South 8.1 mph - N/A   Overcast
7:35 PM 57.2 °F 51.8 °F 82% 29.97 in 10.0 mi South 6.9 mph - N/A   Overcast
7:55 PM 57.2 °F 51.8 °F 82% 29.96 in 10.0 mi South 8.1 mph - N/A   Overcast
8:15 PM 57.2 °F 50.0 °F 77% 29.96 in 10.0 mi South 11.5 mph - N/A   Overcast
8:35 PM 57.2 °F 51.8 °F 82% 29.95 in 10.0 mi South 9.2 mph - N/A   Overcast
9:00 PM 55.4 °F 51.8 °F 88% 29.95 in 10.0 mi South 8.1 mph - N/A   Overcast
9:20 PM 57.2 °F 51.8 °F 82% 29.95 in 10.0 mi South 9.2 mph - N/A   Overcast
9:40 PM 57.2 °F 51.8 °F 82% 29.95 in 10.0 mi SSW 9.2 mph 16.1 mph N/A   Overcast
10:00 PM 57.2 °F 51.8 °F 82% 29.95 in 10.0 mi South 9.2 mph - N/A   Overcast
10:25 PM 57.2 °F 51.8 °F 82% 29.94 in 10.0 mi South 6.9 mph - N/A   Overcast
10:45 PM 55.4 °F 51.8 °F 88% 29.95 in 10.0 mi SSW 4.6 mph - N/A   Overcast
11:05 PM 55.4 °F 51.8 °F 88% 29.96 in 10.0 mi West 3.5 mph - N/A   Overcast
11:25 PM 55.4 °F 51.8 °F 88% 29.96 in 10.0 mi West 3.5 mph - N/A   Overcast
11:50 PM 53.6 °F 53.6 °F 100% 29.99 in 3.0 mi West 9.2 mph 17.3 mph N/A   Overcast